Location: Unspecified
(0.0000°N, 0.0000°E)
Time: 09:24:47
(UTC+00:00)

CZ-3B DEB - Pass Details

Date: 17 February 2026
Orbit: 643 x 41817 km, 26.5° (Epoch: 5 March)

Event Time Altitude Azimuth Distance (km) Brightness Sun altitude
Exits shadow 01:43:49 79° 255° (WSW) 11,631 ? -64.7°
Maximum altitude 01:53:03 81° 218° (SW) 13,678 ? -62.6°
Drops below altitude 10° 13:25:08 10° 58° (ENE) 3,370 ? 68.7°
Sets 13:26:42 0° 59° (ENE) 3,923 ? 68.4°
